When you browse on this site, cookies collect data to enhance your experience and personalize the content and advertising you see.
Visit our Privacy Policy to learn more. By continuing to use the site, you agree to this use of cookies and data.
  • In Portugal
  • List of Countries
  • For 7 days
  • Water Temperature
  • Satellite Maps
  • Weather Map
  • Weather Widgets
  • user-avatar
    Login

    Hourly Weather Nara

    Today, 11 December, Tuesday

    Time Temperature Precipitation Wind Pressure Humidity
    00:00 +1°C° 0 mm 3 mps 740 mmHg 69%
    01:00 +2°C° 0 mm 2 mps 739 mmHg 69%
    02:00 +2°C° 0 mm 2 mps 739 mmHg 69%
    03:00 +2°C° 0 mm 2 mps 739 mmHg 67%
    04:00 +2°C° 0 mm 2 mps 739 mmHg 65%
    05:00 +2°C° 0 mm 2 mps 739 mmHg 64%
    06:00 +2°C° 0 mm 2 mps 739 mmHg 62%
    07:00 +4°C° 0 mm 2 mps 739 mmHg 58%
    08:00 +5°C° 0 mm 2 mps 739 mmHg 53%
    09:00 +6°C° 0 mm 2 mps 739 mmHg 48%
    10:00 +8°C° 0 mm 2 mps 738 mmHg 44%
    11:00 +10°C° 0 mm 2 mps 738 mmHg 39%
    12:00 +12°C° 0 mm 2 mps 737 mmHg 35%
    13:00 +12°C° 0 mm 2 mps 737 mmHg 38%
    14:00 +12°C° 0 mm 2 mps 736 mmHg 41%
    15:00 +13°C° 0 mm 2 mps 735 mmHg 44%
    16:00 +10°C° 0.3 mm 2 mps 735 mmHg 54%
    17:00 +10°C° 0.3 mm 1 mps 735 mmHg 65%
    18:00 +9°C° 0.3 mm 1 mps 735 mmHg 76%
    19:00 +8°C° 1.4 mm 2 mps 735 mmHg 81%
    20:00 +8°C° 1.4 mm 2 mps 734 mmHg 85%
    21:00 +8°C° 1.4 mm 3 mps 734 mmHg 90%
    22:00 +8°C° 0.6 mm 3 mps 733 mmHg 90%
    23:00 +8°C° 0.6 mm 3 mps 733 mmHg 91%

    Tomorrow, 12 December, Wednesday

    Time Temperature Precipitation Wind Pressure Humidity
    00:00 +8°C° 0.6 mm 2 mps 732 mmHg 92%
    01:00 +8°C° 2.1 mm 2 mps 731 mmHg 92%
    02:00 +8°C° 2.1 mm 2 mps 731 mmHg 93%
    03:00 +8°C° 2.1 mm 2 mps 730 mmHg 94%
    04:00 +8°C° 1.3 mm 2 mps 730 mmHg 94%
    05:00 +8°C° 1.3 mm 3 mps 730 mmHg 93%
    06:00 +8°C° 1.3 mm 3 mps 730 mmHg 93%
    07:00 +8°C° 0.1 mm 3 mps 730 mmHg 91%
    08:00 +8°C° 0.1 mm 3 mps 730 mmHg 88%
    09:00 +9°C° 0.1 mm 3 mps 731 mmHg 86%
    10:00 +8°C° 0.1 mm 4 mps 731 mmHg 83%
    11:00 +8°C° 0.1 mm 5 mps 731 mmHg 80%
    12:00 +8°C° 0.1 mm 6 mps 731 mmHg 77%
    13:00 +8°C° 0.1 mm 6 mps 731 mmHg 74%
    14:00 +7°C° 0.1 mm 6 mps 731 mmHg 71%
    15:00 +7°C° 0.1 mm 6 mps 731 mmHg 68%
    16:00 +7°C° 0 mm 6 mps 731 mmHg 69%
    17:00 +5°C° 0 mm 6 mps 732 mmHg 69%
    18:00 +4°C° 0 mm 6 mps 732 mmHg 70%
    19:00 +5°C° 0 mm 5 mps 733 mmHg 71%
    20:00 +3°C° 0 mm 5 mps 733 mmHg 72%
    21:00 +4°C° 0 mm 4 mps 733 mmHg 73%
    22:00 +4°C° 0 mm 4 mps 734 mmHg 76%
    23:00 +4°C° 0 mm 4 mps 734 mmHg 78%

    Day after tomorrow, 13 December, Thursday

    Time Temperature Precipitation Wind Pressure Humidity
    00:00 +3°C° 0 mm 4 mps 734 mmHg 80%
    01:00 +3°C° 0 mm 3 mps 734 mmHg 81%
    02:00 +3°C° 0 mm 3 mps 734 mmHg 82%
    03:00 +3°C° 0 mm 3 mps 734 mmHg 82%
    04:00 +3°C° 0 mm 2 mps 734 mmHg 82%
    05:00 +3°C° 0 mm 2 mps 734 mmHg 83%
    06:00 +3°C° 0 mm 2 mps 735 mmHg 83%
    07:00 +4°C° 0 mm 2 mps 735 mmHg 78%
    08:00 +5°C° 0 mm 2 mps 735 mmHg 72%
    09:00 +6°C° 0 mm 2 mps 736 mmHg 67%
    10:00 +5°C° 0 mm 3 mps 736 mmHg 66%
    11:00 +6°C° 0 mm 4 mps 735 mmHg 64%
    12:00 +7°C° 0 mm 5 mps 735 mmHg 63%
    13:00 +7°C° 0 mm 5 mps 735 mmHg 61%
    14:00 +7°C° 0 mm 6 mps 735 mmHg 58%
    15:00 +7°C° 0 mm 6 mps 734 mmHg 56%
    16:00 +5°C° 0 mm 6 mps 735 mmHg 59%
    17:00 +5°C° 0 mm 6 mps 735 mmHg 62%
    18:00 +4°C° 0 mm 6 mps 735 mmHg 65%
    19:00 +3°C° 0 mm 5 mps 736 mmHg 65%
    20:00 +3°C° 0 mm 5 mps 736 mmHg 65%
    21:00 +3°C° 0 mm 5 mps 736 mmHg 65%
    22:00 +3°C° 0 mm 5 mps 736 mmHg 65%
    23:00 +3°C° 0 mm 5 mps 736 mmHg 66%

    14 December, Friday

    Time Temperature Precipitation Wind Pressure Humidity
    00:00 +2°C° 0 mm 5 mps 736 mmHg 67%
    01:00 +2°C° 0 mm 5 mps 736 mmHg 68%
    02:00 +2°C° 0 mm 5 mps 736 mmHg 70%
    03:00 +2°C° 0 mm 5 mps 736 mmHg 71%
    04:00 +2°C° 0 mm 5 mps 737 mmHg 72%
    05:00 +2°C° 0 mm 5 mps 737 mmHg 73%
    06:00 +1°C° 0 mm 5 mps 737 mmHg 74%
    07:00 +2°C° 0 mm 5 mps 738 mmHg 71%
    08:00 +2°C° 0 mm 5 mps 738 mmHg 68%
    09:00 +2°C° 0 mm 5 mps 738 mmHg 65%
    10:00 +3°C° 0 mm 5 mps 738 mmHg 61%
    11:00 +5°C° 0 mm 5 mps 738 mmHg 57%
    12:00 +5°C° 0 mm 5 mps 738 mmHg 52%
    13:00 +5°C° 0 mm 5 mps 738 mmHg 53%
    14:00 +5°C° 0 mm 5 mps 738 mmHg 54%
    15:00 +5°C° 0 mm 5 mps 738 mmHg 54%
    16:00 +2°C° 0 mm 5 mps 738 mmHg 59%
    17:00 +1°C° 0 mm 5 mps 738 mmHg 64%
    18:00 0°C° 0 mm 4 mps 739 mmHg 68%
    19:00 0°C° 0 mm 4 mps 739 mmHg 70%
    20:00 0°C° 0 mm 4 mps 739 mmHg 71%
    21:00 0°C° 0 mm 4 mps 740 mmHg 73%
    22:00 -1°C° 0 mm 4 mps 740 mmHg 74%
    23:00 0°C° 0 mm 3 mps 740 mmHg 74%

    15 December, Saturday

    Time Temperature Precipitation Wind Pressure Humidity
    00:00 0°C° 0 mm 3 mps 740 mmHg 75%
    01:00 0°C° 0 mm 3 mps 740 mmHg 76%
    02:00 0°C° 0 mm 3 mps 740 mmHg 76%
    03:00 0°C° 0 mm 3 mps 740 mmHg 77%
    04:00 0°C° 0 mm 3 mps 740 mmHg 77%
    05:00 0°C° 0 mm 3 mps 740 mmHg 77%
    06:00 0°C° 0 mm 3 mps 740 mmHg 77%
    07:00 +1°C° 0 mm 3 mps 740 mmHg 71%
    08:00 +2°C° 0 mm 3 mps 740 mmHg 65%
    09:00 +3°C° 0 mm 3 mps 740 mmHg 59%
    10:00 +4°C° 0 mm 3 mps 740 mmHg 55%
    11:00 +5°C° 0 mm 3 mps 740 mmHg 51%
    12:00 +7°C° 0 mm 3 mps 739 mmHg 47%
    13:00 +7°C° 0 mm 3 mps 739 mmHg 48%
    14:00 +7°C° 0 mm 3 mps 739 mmHg 48%
    15:00 +7°C° 0 mm 3 mps 738 mmHg 48%
    16:00 +5°C° 0 mm 3 mps 738 mmHg 54%
    17:00 +3°C° 0 mm 3 mps 738 mmHg 60%
    18:00 +3°C° 0 mm 2 mps 738 mmHg 66%
    19:00 +3°C° 0 mm 2 mps 739 mmHg 65%
    20:00 +3°C° 0 mm 2 mps 739 mmHg 64%
    21:00 +2°C° 0 mm 2 mps 739 mmHg 64%
    22:00 +2°C° 0 mm 2 mps 738 mmHg 62%
    23:00 +3°C° 0 mm 1 mps 738 mmHg 61%

    16 December, Sunday

    Time Temperature Precipitation Wind Pressure Humidity
    00:00 +3°C° 0 mm 1 mps 738 mmHg 60%
    01:00 +3°C° 0 mm 1 mps 737 mmHg 59%
    02:00 +3°C° 0 mm 1 mps 737 mmHg 59%
    03:00 +3°C° 0 mm 1 mps 737 mmHg 58%
    04:00 +3°C° 0 mm 1 mps 737 mmHg 57%
    05:00 +3°C° 0 mm 1 mps 736 mmHg 56%
    06:00 +3°C° 0 mm 1 mps 736 mmHg 55%
    07:00 +5°C° 0 mm 1 mps 736 mmHg 50%
    08:00 +6°C° 0 mm 1 mps 736 mmHg 46%
    09:00 +8°C° 0 mm 1 mps 737 mmHg 42%
    10:00 +9°C° 0 mm 1 mps 736 mmHg 39%
    11:00 +11°C° 0 mm 1 mps 735 mmHg 37%
    12:00 +12°C° 0 mm 1 mps 735 mmHg 34%
    13:00 +12°C° 0 mm 1 mps 734 mmHg 38%
    14:00 +11°C° 0 mm 1 mps 734 mmHg 42%
    15:00 +11°C° 0 mm 1 mps 734 mmHg 46%
    16:00 +10°C° 0 mm 1 mps 733 mmHg 49%
    17:00 +9°C° 0 mm 1 mps 733 mmHg 52%
    18:00 +8°C° 0 mm 1 mps 733 mmHg 56%
    19:00 +8°C° 0.1 mm 1 mps 733 mmHg 59%
    20:00 +8°C° 0.1 mm 1 mps 733 mmHg 63%
    21:00 +7°C° 0.1 mm 1 mps 733 mmHg 67%
    22:00 +7°C° 0.1 mm 1 mps 733 mmHg 69%
    23:00 +7°C° 0.1 mm 1 mps 732 mmHg 71%
    Show more